Temperature
12 12 12 12 12 12 12 12 12 11 11 11 11 11 10 10 10 9 9 8 8 7 7 6 6 6 6 6 5 5 5 5 5 5 5 5 4 4 4 4 4 4 4
11 11 11 11 11 11 11 11 11 11 10 10 10 10 9 9 8 8 7 7 7 6 6 5 5 5 5 5 5 5 4 4 4 4 4 4 4 4 3 3 3 3 3
10 10 10 10 10 10 10 10 10 10 9 9 9 8 8 8 7 7 7 6 6 5 5 5 4 4 4 4 4 4 4 4 4 4 4 3 3 3 3 3 2 2 2
9 9 9 9 9 9 9 9 9 9 9 8 8 7 7 7 6 6 5 5 5 4 4 3 3 3 3 3 3 3 3 3 3 3 3 3 3 2 2 2 2 1 2
8 8 8 9 9 9 9 8 8 8 8 7 7 7 6 6 5 5 4 4 4 3 3 3 2 2 2 2 2 3 3 3 2 2 2 2 2 2 1 1 1 1 1
8 8 8 8 8 8 8 8 7 7 7 6 6 5 5 4 4 3 3 3 3 2 2 2 2 2 2 2 2 2 2 2 2 2 2 2 2 1 1 1 1 1 0
8 8 8 8 8 7 7 7 7 6 6 5 5 4 4 3 2 2 2 2 1 1 1 1 1 1 1 1 1 2 2 2 2 1 1 1 1 1 0 0 -0 -0 -0
8 7 7 7 7 7 7 6 6 5 5 4 4 3 3 2 1 1 1 1 1 0 0 1 1 1 1 1 1 1 1 1 1 1 1 1 0 0 -0 -0 -0 -1 -1
7 7 7 7 7 6 6 5 5 5 4 4 3 2 2 1 1 0 0 0 0 0 0 0 0 0 0 1 1 1 1 1 1 1 0 0 -0 -0 -1 -1 -1 -1 -1
7 7 7 6 6 6 5 5 4 4 3 3 2 1 1 0 0 0 -0 0 0 0 0 0 0 0 0 0 0 0 0 0 0 -0 -0 -0 -1 -1 -1 -1 -1 -1 -1
6 6 6 5 5 5 4 4 3 3 2 2 1 1 0 0 -0 -0 -0 -0 -0 -0 -0 -0 -0 -0 -0 -0 -0 -0 -0 -0 -0 -1 -1 -1 -1 -1 -1 -1 -2 -2 -2
6 5 5 5 4 4 3 3 3 2 2 2 1 1 0 -0 -0 -0 -0 -0 -0 -0 -0 -0 -0 -1 -1 -1 -1 -1 -1 -1 -1 -1 -1 -1 -1 -2 -2 -2 -2 -2 -2
5 5 4 4 4 3 3 3 2 2 2 1 1 1 0 -0 -0 -0 -0 -1 -1 -0 -0 -1 -1 -1 -1 -1 -1 -1 -1 -1 -1 -1 -1 -1 -2 -2 -2 -2 -2 -3 -3
4 4 4 3 3 3 2 2 2 2 1 1 1 0 0 -0 -0 -0 -0 -1 -1 -1 -1 -1 -1 -1 -1 -1 -1 -1 -1 -1 -1 -1 -2 -2 -2 -2 -2 -3 -3 -3 -3
3 3 3 3 3 2 2 2 2 1 1 1 0 0 0 0 0 -0 -1 -1 -1 -1 -1 -1 -1 -1 -1 -1 -1 -1 -1 -1 -1 -2 -2 -2 -2 -3 -3 -3 -3 -3 -3
3 3 2 2 2 2 2 1 1 1 1 0 0 0 0 0 -0 -0 -1 -1 -1 -1 -1 -1 -1 -1 -1 -1 -1 -1 -2 -2 -2 -2 -2 -2 -3 -3 -3 -4 -4 -4 -4
2 2 2 1 1 1 1 1 1 1 0 0 0 0 0 0 -0 -0 -1 -1 -1 -2 -2 -1 -1 -1 -1 -1 -1 -2 -2 -2 -2 -2 -2 -3 -3 -3 -4 -4 -4 -4 -4
1 1 1 1 1 1 1 1 0 0 0 0 0 0 0 -0 -0 -0 -1 -1 -1 -1 -1 -1 -1 -1 -1 -1 -2 -2 -2 -2 -3 -3 -3 -3 -3 -4 -4 -4 -4 -4 -4
0 0 0 0 0 0 0 -0 -0 -0 -0 0 0 -0 -0 -0 -0 -1 -1 -1 -1 -1 -1 -1 -1 -1 -1 -2 -2 -2 -2 -3 -3 -3 -3 -3 -4 -4 -4 -4 -5 -5 -5
-0 -0 -1 -0 -0 -0 -1 -1 -1 -1 -1 -1 -0 -0 -0 -1 -1 -1 -1 -1 -1 -1 -1 -1 -1 -1 -1 -2 -2 -2 -3 -3 -3 -3 -4 -4 -4 -4 -5 -5 -5 -5 -6
-1 -1 -1 -1 -1 -1 -1 -1 -1 -1 -1 -1 -1 -1 -1 -1 -1 -1 -1 -1 -1 -1 -1 -1 -1 -1 -2 -2 -2 -3 -3 -3 -3 -4 -4 -4 -5 -5 -5 -5 -6 -6 -6
-2 -2 -2 -2 -2 -2 -2 -2 -2 -2 -1 -1 -1 -1 -1 -1 -1 -1 -1 -1 -1 -1 -2 -2 -2 -2 -2 -2 -2 -3 -3 -3 -4 -4 -4 -5 -5 -6 -6 -6 -6 -6 -6
-3 -3 -3 -2 -2 -2 -2 -2 -2 -2 -2 -2 -2 -2 -2 -2 -2 -2 -2 -2 -2 -2 -2 -2 -3 -3 -3 -3 -3 -4 -4 -4 -4 -5 -5 -5 -6 -6 -6 -6 -6 -7 -7
-4 -4 -3 -3 -3 -3 -3 -3 -3 -3 -3 -3 -2 -2 -2 -2 -2 -2 -2 -2 -2 -2 -3 -3 -3 -3 -3 -4 -4 -4 -4 -5 -5 -5 -6 -6 -6 -6 -6 -7 -7 -7 -7
-4 -4 -4 -4 -4 -4 -4 -3 -3 -3 -3 -3 -3 -3 -3 -3 -3 -3 -3 -3 -3 -3 -3 -4 -4 -4 -4 -4 -4 -5 -5 -5 -5 -6 -6 -6 -6 -7 -7 -7 -7 -8 -8
-5 -5 -4 -4 -4 -4 -4 -4 -4 -4 -4 -4 -4 -4 -4 -4 -4 -4 -4 -4 -4 -4 -4 -4 -4 -5 -5 -5 -5 -5 -5 -6 -6 -6 -6 -7 -7 -7 -7 -7 -8 -8 -8
Wind_Speed
6 6 7 7 7 7 7 7 6 5 5 5 4 3 3 2 1 1 0 1 1 1 0 1 1 1 1 1 1 1 1 1 2 2 2 2 2 2 3 5 6 7 8
6 7 7 7 7 7 7 6 6 6 5 4 4 3 3 2 2 1 1 1 1 1 1 2 1 2 2 1 1 1 0 1 2 3 2 2 2 2 2 3 4 6 7
7 7 7 7 7 7 7 6 6 6 5 4 4 3 2 2 2 2 1 2 2 2 2 2 2 2 2 1 1 1 1 1 1 3 3 2 1 1 2 2 3 4 5
8 8 8 7 7 7 6 6 6 6 5 4 4 3 3 2 2 2 2 2 3 3 3 3 3 3 2 2 1 1 1 2 2 3 3 2 2 2 2 2 1 2 3
8 8 8 7 7 7 6 6 5 5 5 4 4 3 3 2 2 3 2 3 3 3 3 3 3 3 4 3 2 1 1 2 2 3 2 2 2 2 1 1 1 1 2
9 8 8 8 7 7 7 6 6 5 4 4 4 4 3 2 4 5 4 3 3 4 3 3 3 3 4 5 5 4 3 3 3 3 2 3 2 2 2 1 1 1 1
9 8 8 8 8 7 7 7 6 5 5 4 4 4 4 4 5 5 5 3 3 4 4 3 2 3 4 4 5 7 6 5 3 4 4 4 4 3 4 2 1 1 2
9 9 9 9 8 8 7 7 6 5 5 4 4 5 4 4 6 6 6 3 3 3 4 4 4 3 3 4 4 3 4 4 3 3 4 3 3 4 4 4 3 1 0
9 9 9 10 9 9 8 7 6 5 5 4 4 5 5 5 7 7 6 3 3 3 3 3 4 4 5 6 4 3 2 2 3 5 6 5 5 5 6 4 3 2 0
9 9 9 9 9 9 8 7 5 5 5 5 5 5 6 5 8 9 8 3 3 3 2 3 6 6 6 6 5 4 3 2 1 2 2 3 3 2 3 4 4 3 1
6 7 8 8 9 8 7 6 5 5 5 5 5 5 5 7 9 11 11 5 5 4 4 4 4 8 8 7 6 5 5 4 3 3 1 1 1 1 1 3 4 4 3
6 7 7 8 7 7 8 7 7 7 7 6 6 5 5 6 9 10 13 11 9 6 5 5 5 9 9 9 6 7 7 5 3 3 2 2 2 2 2 3 4 4 4
5 6 6 7 7 7 8 8 7 7 7 6 6 6 6 5 7 14 14 14 14 7 6 9 10 11 10 7 8 9 6 4 4 3 3 3 3 3 2 2 2 2 3
6 6 6 7 7 7 7 7 7 8 8 7 7 7 6 5 6 6 6 7 11 9 6 9 12 12 9 8 7 6 4 4 5 4 4 3 3 3 3 3 2 2 1
5 5 6 6 7 7 7 8 9 9 9 9 8 7 7 7 10 13 9 7 6 6 5 4 4 3 5 5 4 4 4 4 5 4 4 4 4 4 4 3 3 3 3
4 5 5 5 6 6 6 6 11 12 15 16 14 11 9 12 11 14 17 17 16 14 9 5 7 7 8 7 7 6 6 6 6 5 5 5 5 5 4 3 3 4 4
4 5 4 5 5 6 6 6 6 8 14 16 17 17 16 14 15 14 15 16 17 16 10 7 8 8 8 8 7 7 6 7 6 6 6 6 5 5 5 5 5 4 5
4 5 5 5 5 6 6 7 6 6 6 6 11 17 18 17 16 15 15 13 10 11 8 9 9 9 8 8 8 8 7 6 6 6 6 6 6 6 5 5 6 6 6
4 4 4 4 4 5 5 6 6 7 7 6 4 7 14 15 16 16 14 8 9 9 9 9 9 9 9 9 8 8 7 7 7 7 7 7 7 7 6 7 6 9 8
5 6 5 4 4 5 5 5 6 6 6 6 6 6 5 6 7 8 10 9 9 10 10 10 10 9 9 9 8 8 8 8 8 8 7 7 7 7 7 8 7 7 7
4 5 6 4 4 5 5 5 6 6 6 6 7 7 9 7 7 8 8 8 9 10 9 9 9 9 9 8 8 9 10 8 8 8 8 7 7 7 7 7 7 7 7
4 4 4 4 4 4 5 5 5 6 6 7 5 6 10 7 6 6 7 7 8 8 7 7 8 8 8 9 9 9 9 9 8 8 8 8 7 8 7 7 7 7 7
4 4 4 4 4 6 5 4 4 5 5 5 5 4 4 5 6 6 6 6 5 5 5 6 7 7 7 8 9 9 9 9 9 8 8 8 8 7 7 8 9 8 8
4 5 5 4 4 4 4 4 4 4 5 5 5 5 5 5 5 6 5 4 5 5 5 5 6 8 9 8 10 11 12 12 11 10 10 9 8 7 7 7 8 9 9
4 4 5 4 4 4 4 4 4 4 4 4 4 4 4 4 4 5 5 5 5 5 6 6 6 7 9 10 10 11 13 15 14 12 10 8 9 9 8 8 8 8 9
4 5 4 4 4 4 4 4 3 3 3 3 3 3 4 4 4 4 4 4 5 5 5 5 7 8 8 9 11 12 13 14 15 15 12 8 8 8 8 8 9 9 9
Wind_Direction
148 136 129 126 124 120 120 125 125 120 120 122 122 119 111 92 64 66 276 267 210 214 168 135 104 69 53 9 354 350 327 239 207 131 108 103 86 79 66 66 61 56 45
148 138 134 128 124 123 124 126 126 123 122 123 119 116 115 105 89 98 111 102 159 161 134 126 117 100 72 26 24 33 347 311 177 161 129 121 108 103 79 65 52 51 41
145 142 139 137 136 139 138 135 132 130 126 123 125 128 126 124 113 106 116 102 105 115 119 124 120 116 93 54 48 49 359 2 100 137 134 121 105 87 79 58 49 31 34
152 152 156 157 154 151 145 141 138 135 137 140 141 144 146 143 135 127 123 119 111 100 97 105 112 126 132 120 80 50 71 83 94 113 118 110 101 79 88 82 44 22 14
161 165 170 161 151 146 145 143 141 145 152 154 152 153 151 153 160 149 142 148 136 118 100 92 99 115 128 128 119 97 108 113 112 113 121 114 118 111 125 101 87 7 5
172 176 166 157 155 155 155 153 153 158 159 161 168 170 174 184 185 182 172 159 155 148 137 112 94 80 87 88 84 85 108 136 153 148 150 154 159 148 128 116 110 81 298
179 174 168 164 165 166 164 163 170 174 173 176 180 178 180 191 195 193 185 158 160 163 161 158 145 116 93 77 74 62 55 66 122 159 159 171 167 169 148 137 151 173 227
182 178 173 170 172 169 170 177 180 176 180 183 185 183 182 199 200 192 172 145 150 165 172 174 162 152 155 140 115 81 55 43 71 97 137 155 160 156 161 163 163 149 323
188 187 181 176 174 175 182 184 181 178 183 186 184 185 189 204 201 190 171 150 166 181 188 186 177 186 196 167 144 134 97 38 86 113 125 136 145 155 151 122 117 97 128
198 190 180 176 177 183 186 181 177 179 187 186 192 195 197 207 210 205 189 168 183 196 208 212 204 202 206 184 165 167 181 203 153 99 84 82 71 92 140 150 150 142 165
184 172 174 178 181 181 178 175 176 180 184 192 200 208 210 216 221 218 205 184 192 197 205 213 229 221 216 208 192 189 208 193 179 172 160 139 105 106 124 149 159 155 167
169 175 180 180 180 177 176 181 182 185 194 201 208 219 224 224 226 227 219 212 204 198 207 208 220 226 224 222 212 212 217 189 163 176 190 201 204 214 210 191 187 190 198
175 185 185 181 183 178 180 185 189 195 205 209 212 222 226 219 226 229 227 224 219 208 211 216 220 227 225 226 226 224 216 180 178 199 211 215 213 207 180 175 192 207 235
193 193 187 187 190 188 190 191 197 205 211 213 215 222 224 219 219 223 224 230 227 221 213 223 225 228 219 215 227 235 206 192 196 208 213 208 182 175 188 187 191 189 237
205 201 197 198 197 199 203 206 207 214 213 213 216 214 215 225 226 218 210 214 210 208 186 191 201 207 211 208 215 221 215 215 220 204 204 203 202 199 204 192 189 184 200
217 211 208 206 205 207 211 222 223 223 228 229 227 221 224 229 232 227 224 223 222 217 205 202 211 215 220 221 222 222 219 220 217 210 208 210 210 208 211 201 195 201 221
230 225 219 214 212 212 213 218 231 233 235 237 236 235 233 233 234 231 227 224 223 217 215 214 217 219 221 220 219 219 221 218 210 208 211 211 210 209 209 212 213 220 233
247 234 226 225 221 219 218 220 222 225 231 237 236 237 237 235 233 231 227 222 223 220 217 219 221 220 219 220 220 221 222 216 209 211 211 210 206 205 211 216 217 222 234
257 247 235 230 226 226 224 222 223 224 231 236 231 237 237 236 234 231 223 218 218 221 222 224 223 221 220 220 221 219 216 215 210 207 211 210 207 206 216 219 221 235 236
262 256 248 238 231 228 224 225 226 227 231 233 234 232 218 217 221 221 217 214 220 226 226 227 226 223 221 220 219 217 218 217 214 213 213 211 208 208 217 218 220 226 232
270 265 255 248 238 233 231 229 230 229 232 235 236 231 218 214 221 221 219 219 221 225 226 226 225 223 220 218 217 217 217 219 215 213 213 211 207 211 216 218 220 224 230
273 271 263 254 248 243 242 236 233 232 233 236 240 239 237 226 223 227 227 228 228 226 223 221 224 223 219 216 216 217 219 220 217 213 212 211 210 212 213 215 220 223 227
271 271 268 261 256 258 256 242 239 237 236 235 235 232 232 230 231 231 233 233 232 230 224 221 227 227 221 218 216 216 219 220 215 208 207 209 209 210 211 216 219 221 226
270 271 268 266 261 256 255 253 248 245 242 238 233 231 231 232 236 238 237 236 234 233 229 227 230 231 226 221 221 221 223 222 214 208 203 206 207 208 210 216 221 224 227
264 269 272 271 267 265 263 259 255 252 250 246 241 238 237 238 241 244 241 237 236 238 237 231 231 231 231 228 226 225 228 228 221 211 204 206 209 208 209 215 220 225 227
262 265 267 267 267 268 267 266 263 261 260 258 254 250 246 244 245 246 246 242 241 240 240 234 232 232 233 233 234 235 236 235 231 223 210 205 207 212 211 219 220 225 230
Height
1491 1493 1495 1497 1499 1501 1503 1505 1506 1507 1508 1509 1509 1508 1508 1507 1506 1505 1504 1504 1503 1502 1502 1501 1501 1500 1500 1500 1500 1500 1501 1501 1501 1501 1501 1502 1502 1502 1502 1501 1501 1500 1500
1487 1489 1491 1493 1496 1498 1500 1501 1502 1503 1504 1504 1504 1504 1503 1502 1501 1500 1499 1498 1498 1497 1497 1496 1496 1496 1496 1496 1496 1496 1496 1497 1497 1497 1497 1498 1498 1498 1498 1498 1497 1497 1497
1484 1486 1488 1490 1492 1494 1496 1498 1499 1500 1500 1500 1500 1499 1498 1497 1496 1495 1494 1494 1493 1493 1492 1492 1492 1492 1492 1492 1492 1492 1492 1492 1493 1493 1494 1494 1494 1494 1494 1494 1494 1494 1494
1481 1483 1485 1487 1489 1491 1493 1494 1495 1495 1495 1495 1495 1494 1493 1492 1491 1490 1489 1489 1488 1488 1488 1488 1488 1488 1488 1488 1488 1488 1488 1488 1489 1489 1490 1490 1490 1490 1491 1491 1491 1491 1491
1477 1480 1482 1484 1486 1488 1489 1490 1491 1491 1491 1491 1490 1489 1488 1487 1486 1485 1484 1484 1484 1484 1484 1484 1484 1484 1484 1484 1485 1485 1485 1485 1485 1486 1486 1486 1487 1487 1488 1488 1488 1488 1487
1474 1476 1479 1481 1482 1484 1485 1486 1487 1487 1487 1486 1485 1484 1483 1482 1481 1481 1480 1480 1480 1480 1480 1481 1481 1481 1481 1481 1482 1482 1482 1482 1482 1483 1483 1483 1484 1484 1484 1485 1485 1485 1485
1471 1473 1475 1477 1479 1480 1482 1482 1483 1483 1482 1482 1481 1480 1479 1478 1478 1477 1477 1477 1477 1477 1478 1478 1478 1478 1479 1479 1479 1479 1479 1479 1480 1480 1480 1481 1481 1481 1481 1482 1482 1482 1482
1467 1469 1471 1473 1475 1477 1477 1478 1478 1478 1478 1477 1477 1476 1475 1475 1474 1474 1474 1474 1474 1475 1475 1476 1476 1476 1476 1476 1476 1476 1476 1477 1477 1477 1478 1478 1478 1478 1479 1479 1479 1479 1479
1463 1466 1468 1470 1471 1472 1473 1474 1474 1474 1474 1473 1473 1472 1472 1472 1471 1471 1471 1471 1472 1472 1473 1473 1473 1474 1474 1474 1474 1474 1474 1474 1474 1475 1475 1475 1475 1476 1476 1477 1477 1477 1477
1460 1462 1464 1465 1467 1468 1469 1470 1470 1470 1469 1469 1469 1468 1468 1468 1468 1469 1469 1469 1469 1470 1470 1471 1471 1471 1472 1472 1472 1472 1472 1472 1473 1473 1473 1473 1473 1473 1474 1474 1475 1475 1475
1456 1458 1459 1461 1462 1463 1464 1465 1465 1465 1465 1465 1465 1465 1465 1465 1465 1466 1466 1466 1467 1467 1468 1468 1469 1469 1469 1469 1470 1470 1470 1470 1470 1471 1471 1471 1471 1471 1472 1472 1472 1473 1473
1452 1453 1455 1456 1457 1458 1459 1460 1460 1460 1460 1460 1460 1461 1461 1461 1462 1462 1463 1463 1464 1464 1465 1466 1466 1466 1467 1467 1467 1467 1468 1468 1468 1468 1468 1468 1469 1469 1469 1470 1470 1470 1470
1448 1449 1450 1451 1452 1453 1454 1454 1455 1455 1455 1455 1456 1456 1457 1458 1458 1459 1459 1460 1461 1461 1462 1462 1463 1463 1464 1464 1464 1465 1465 1465 1465 1465 1466 1466 1466 1466 1467 1467 1467 1467 1467
1444 1444 1445 1446 1447 1448 1448 1449 1450 1450 1450 1451 1451 1452 1452 1453 1454 1455 1455 1456 1457 1457 1458 1459 1459 1460 1460 1461 1461 1461 1461 1462 1462 1462 1462 1463 1463 1463 1463 1463 1463 1463 1463
1439 1440 1440 1441 1442 1442 1443 1444 1444 1445 1446 1446 1447 1447 1448 1448 1450 1451 1451 1452 1453 1454 1454 1455 1455 1456 1456 1457 1457 1457 1458 1458 1458 1458 1458 1459 1459 1459 1459 1460 1459 1459 1459
1435 1435 1435 1436 1436 1437 1437 1438 1439 1440 1440 1441 1441 1442 1443 1444 1445 1445 1446 1447 1448 1449 1449 1449 1450 1451 1451 1452 1452 1453 1453 1453 1454 1454 1454 1454 1454 1455 1455 1455 1455 1455 1455
1430 1430 1430 1431 1431 1432 1432 1433 1433 1434 1435 1435 1436 1437 1437 1438 1439 1440 1441 1442 1443 1444 1443 1444 1445 1446 1446 1447 1447 1448 1448 1449 1449 1449 1449 1449 1449 1449 1450 1450 1450 1450 1450
1425 1425 1425 1425 1426 1426 1427 1427 1428 1428 1429 1429 1430 1431 1432 1432 1433 1434 1435 1436 1437 1437 1437 1438 1438 1439 1440 1441 1441 1442 1442 1443 1443 1443 1443 1444 1444 1444 1444 1444 1444 1444 1444
1420 1420 1420 1420 1420 1420 1421 1422 1422 1422 1423 1423 1424 1425 1425 1426 1427 1428 1429 1429 1429 1430 1431 1431 1432 1433 1433 1434 1434 1435 1436 1436 1436 1437 1437 1437 1438 1438 1438 1438 1438 1438 1438
1415 1414 1414 1414 1414 1415 1415 1415 1416 1416 1416 1417 1417 1418 1419 1420 1420 1421 1422 1422 1422 1423 1423 1424 1424 1425 1426 1426 1427 1428 1428 1428 1429 1430 1430 1430 1431 1431 1431 1431 1431 1431 1431
1410 1409 1409 1409 1408 1409 1409 1409 1409 1410 1410 1410 1411 1412 1412 1413 1413 1414 1414 1414 1415 1415 1416 1416 1417 1417 1418 1418 1419 1420 1420 1421 1421 1422 1422 1423 1423 1424 1424 1424 1424 1425 1425
1405 1404 1404 1403 1403 1403 1403 1403 1403 1403 1404 1404 1405 1405 1406 1406 1406 1406 1407 1407 1407 1408 1408 1409 1409 1409 1410 1410 1411 1411 1412 1412 1413 1414 1415 1415 1416 1416 1417 1417 1417 1417 1418
1399 1399 1398 1398 1398 1397 1397 1397 1397 1397 1398 1398 1398 1398 1398 1399 1399 1399 1399 1400 1400 1400 1400 1400 1400 1401 1401 1402 1402 1403 1403 1404 1405 1406 1407 1407 1408 1408 1409 1409 1410 1410 1411
1395 1394 1393 1393 1392 1392 1392 1392 1391 1391 1391 1391 1391 1391 1392 1392 1392 1392 1392 1392 1392 1392 1392 1392 1392 1392 1393 1393 1393 1394 1395 1396 1397 1398 1399 1400 1400 1401 1402 1402 1403 1403 1404
1390 1390 1389 1388 1388 1387 1387 1386 1386 1386 1385 1385 1385 1385 1385 1385 1385 1384 1384 1384 1384 1384 1384 1384 1384 1384 1384 1385 1385 1386 1387 1388 1389 1390 1391 1392 1393 1394 1394 1395 1396 1396 1396
1386 1385 1384 1384 1383 1382 1382 1381 1381 1380 1380 1379 1379 1379 1378 1378 1378 1378 1377 1377 1377 1376 1376 1376 1376 1376 1377 1377 1377 1378 1379 1380 1382 1383 1384 1385 1385 1386 1387 1388 1388 1389 1389